Year,Month,Day,Hour,Minute,Value (Times are PST for insolation in W/m^2)
2019,02,01,00,00,0.00
2019,02,01,00,01,0.00
2019,02,01,00,02,0.00
2019,02,01,00,03,0.00
2019,02,01,00,04,0.00
2019,02,01,00,05,0.00
2019,02,01,00,06,0.00
2019,02,01,00,07,0.00
2019,02,01,00,08,0.00
2019,02,01,00,09,0.00
2019,02,01,00,10,0.00
2019,02,01,00,11,0.00
2019,02,01,00,12,0.00
2019,02,01,00,13,0.00
2019,02,01,00,14,0.00
2019,02,01,00,15,0.00
2019,02,01,00,16,0.00
2019,02,01,00,17,0.00
2019,02,01,00,18,0.00
2019,02,01,00,19,0.00
2019,02,01,00,20,0.00
2019,02,01,00,21,0.00
2019,02,01,00,22,0.00
2019,02,01,00,23,0.00
2019,02,01,00,24,0.00
2019,02,01,00,25,0.00
2019,02,01,00,26,0.00
2019,02,01,00,27,0.00
2019,02,01,00,28,0.00
2019,02,01,00,29,0.00
2019,02,01,00,30,0.00
2019,02,01,00,31,0.00
2019,02,01,00,32,0.00
2019,02,01,00,33,0.00
2019,02,01,00,34,0.00
2019,02,01,00,35,0.00
2019,02,01,00,36,0.00
2019,02,01,00,37,0.00
2019,02,01,00,38,0.00
2019,02,01,00,39,0.00
2019,02,01,00,40,0.00
2019,02,01,00,41,0.00
2019,02,01,00,42,0.00
2019,02,01,00,43,0.00
2019,02,01,00,44,0.00
2019,02,01,00,45,0.00
2019,02,01,00,46,0.00
2019,02,01,00,47,0.00
2019,02,01,00,48,0.00
2019,02,01,00,49,0.00
2019,02,01,00,50,0.00
2019,02,01,00,51,0.00
2019,02,01,00,52,0.00
2019,02,01,00,53,0.00
2019,02,01,00,54,0.00
2019,02,01,00,55,0.00
2019,02,01,00,56,0.00
2019,02,01,00,57,0.00
2019,02,01,00,58,0.00
2019,02,01,00,59,0.00
2019,02,01,01,00,0.00
2019,02,01,01,01,0.00
2019,02,01,01,02,0.00
2019,02,01,01,03,0.00
2019,02,01,01,04,0.00
2019,02,01,01,05,0.00
2019,02,01,01,06,0.00
2019,02,01,01,07,0.00
2019,02,01,01,08,0.00
2019,02,01,01,09,0.00
2019,02,01,01,10,0.00
2019,02,01,01,11,0.00
2019,02,01,01,12,0.00
2019,02,01,01,13,0.00
2019,02,01,01,14,0.00
2019,02,01,01,15,0.00
2019,02,01,01,16,0.00
2019,02,01,01,17,0.00
2019,02,01,01,18,0.00
2019,02,01,01,19,0.00
2019,02,01,01,20,0.00
2019,02,01,01,21,0.00
2019,02,01,01,22,0.00
2019,02,01,01,23,0.00
2019,02,01,01,24,0.00
2019,02,01,01,25,0.00
2019,02,01,01,26,0.00
2019,02,01,01,27,0.00
2019,02,01,01,28,0.00
2019,02,01,01,29,0.00
2019,02,01,01,30,0.00
2019,02,01,01,31,0.00
2019,02,01,01,32,0.00
2019,02,01,01,33,0.00
2019,02,01,01,34,0.00
2019,02,01,01,35,0.00
2019,02,01,01,36,0.00
2019,02,01,01,37,0.00
2019,02,01,01,38,0.00
2019,02,01,01,39,0.00
2019,02,01,01,40,0.00
2019,02,01,01,41,0.00
2019,02,01,01,42,0.00
2019,02,01,01,43,0.00
2019,02,01,01,44,0.00
2019,02,01,01,45,0.00
2019,02,01,01,46,0.00
2019,02,01,01,47,0.00
2019,02,01,01,48,0.00
2019,02,01,01,49,0.00
2019,02,01,01,50,0.00
2019,02,01,01,51,0.00
2019,02,01,01,52,0.00
2019,02,01,01,53,0.00
2019,02,01,01,54,0.00
2019,02,01,01,55,0.00
2019,02,01,01,56,0.00
2019,02,01,01,57,0.00
2019,02,01,01,58,0.00
2019,02,01,01,59,0.00
2019,02,01,02,00,0.00
2019,02,01,02,01,0.00
2019,02,01,02,02,0.00
2019,02,01,02,03,0.00
2019,02,01,02,04,0.00
2019,02,01,02,05,0.00
2019,02,01,02,06,0.00
2019,02,01,02,07,0.00
2019,02,01,02,08,0.00
2019,02,01,02,09,0.00
2019,02,01,03,00,0.00
2019,02,01,03,01,0.00
2019,02,01,03,02,0.00
2019,02,01,03,03,0.00
2019,02,01,03,04,0.00
2019,02,01,03,05,0.00
2019,02,01,03,06,0.00
2019,02,01,03,07,0.00
2019,02,01,03,08,0.00
2019,02,01,03,09,0.00
2019,02,01,03,10,0.00
2019,02,01,03,11,0.00
2019,02,01,03,12,0.00
2019,02,01,03,13,0.00
2019,02,01,03,14,0.00
2019,02,01,03,15,0.00
2019,02,01,03,16,0.00
2019,02,01,03,17,0.00
2019,02,01,03,18,0.00
2019,02,01,03,19,0.00
2019,02,01,03,20,0.00
2019,02,01,03,21,0.00
2019,02,01,03,22,0.00
2019,02,01,03,23,0.00
2019,02,01,03,24,0.00
2019,02,01,03,25,0.00
2019,02,01,03,26,0.00
2019,02,01,03,27,0.00
2019,02,01,03,28,0.00
2019,02,01,03,29,0.00
2019,02,01,03,30,0.00
2019,02,01,03,31,0.00
2019,02,01,03,32,0.00
2019,02,01,03,33,0.00
2019,02,01,03,34,0.00
2019,02,01,03,35,0.00
2019,02,01,03,36,0.00
2019,02,01,03,37,0.00
2019,02,01,03,38,0.00
2019,02,01,03,39,0.00
2019,02,01,03,40,0.00
2019,02,01,03,41,0.00
2019,02,01,03,42,0.00
2019,02,01,03,43,0.00
2019,02,01,03,44,0.00
2019,02,01,03,45,0.00
2019,02,01,03,46,0.00
2019,02,01,03,47,0.00
2019,02,01,03,48,0.00
2019,02,01,03,49,0.00
2019,02,01,03,50,0.00
2019,02,01,03,51,0.00
2019,02,01,03,52,0.00
2019,02,01,03,53,0.00
2019,02,01,03,54,0.00
2019,02,01,03,55,0.00
2019,02,01,03,56,0.00
2019,02,01,05,48,0.00
2019,02,01,05,49,0.00
2019,02,01,05,50,0.00
2019,02,01,05,51,0.00
2019,02,01,05,52,0.00
2019,02,01,05,53,0.00
2019,02,01,05,54,0.00
2019,02,01,05,55,0.00
2019,02,01,05,56,0.00
2019,02,01,05,57,0.00
2019,02,01,05,58,0.00
2019,02,01,05,59,0.00
2019,02,01,06,16,0.00
2019,02,01,06,17,0.00
2019,02,01,06,18,0.00
2019,02,01,06,19,0.00
2019,02,01,06,20,0.00
2019,02,01,06,21,0.00
2019,02,01,06,22,0.00
2019,02,01,06,23,0.00
2019,02,01,06,24,0.00
2019,02,01,06,25,0.00
2019,02,01,06,26,0.00
2019,02,01,06,27,0.00
2019,02,01,06,28,0.00
2019,02,01,06,29,0.00
2019,02,01,06,30,0.00
2019,02,01,08,02,0.00
2019,02,01,08,03,0.00
2019,02,01,08,04,0.00
2019,02,01,08,05,0.00
2019,02,01,08,06,0.00
2019,02,01,08,07,0.00
2019,02,01,08,08,0.00
2019,02,01,08,09,0.00
2019,02,01,08,10,0.00
2019,02,01,08,11,0.00
2019,02,01,08,12,0.00
2019,02,01,13,04,33.00
2019,02,01,13,05,32.70
2019,02,01,13,06,32.00
2019,02,01,13,07,32.00
2019,02,01,13,08,32.70
2019,02,01,13,09,32.10
2019,02,01,13,10,30.40
2019,02,01,13,11,32.00
2019,02,01,13,12,32.50
2019,02,01,13,13,34.20
2019,02,01,13,14,36.60
2019,02,01,13,15,37.00
2019,02,01,13,16,37.40
2019,02,01,13,17,38.30
2019,02,01,13,18,38.40
2019,02,01,13,19,40.00
2019,02,01,13,20,39.20
2019,02,01,13,21,37.10
2019,02,01,13,22,35.40
2019,02,01,13,23,36.30
2019,02,01,13,24,36.00
2019,02,01,13,25,38.30
2019,02,01,13,26,39.00
2019,02,01,13,27,39.90
2019,02,01,13,28,40.50
2019,02,01,13,29,43.50
2019,02,01,13,30,46.50
2019,02,01,13,31,48.30
2019,02,01,13,32,53.10
2019,02,01,13,33,53.60
2019,02,01,13,34,59.00
2019,02,01,13,35,61.20
2019,02,01,13,36,60.00
2019,02,01,13,37,60.00
2019,02,01,13,38,60.00
2019,02,01,13,39,58.50
2019,02,01,13,40,62.00
2019,02,01,13,41,62.40
2019,02,01,13,42,62.50
2019,02,01,13,43,62.00
2019,02,01,13,44,58.60
2019,02,01,13,45,57.30
2019,02,01,13,46,53.00
2019,02,01,13,47,53.00
2019,02,01,13,48,53.00
2019,02,01,13,49,53.00
2019,02,01,13,50,49.60
2019,02,01,13,51,47.80
2019,02,01,13,52,43.90
2019,02,01,13,53,49.90
2019,02,01,13,54,51.00
2019,02,01,13,55,52.50
2019,02,01,13,56,53.70
2019,02,01,13,57,48.60
2019,02,01,13,58,48.20
2019,02,01,13,59,53.30
2019,02,01,14,00,56.00
2019,02,01,14,01,53.70
2019,02,01,14,02,53.30
2019,02,01,14,03,61.60
2019,02,01,14,04,61.70
2019,02,01,14,05,66.00
2019,02,01,14,06,64.40
2019,02,01,14,07,62.20
2019,02,01,14,08,54.60
2019,02,01,14,09,55.30
2019,02,01,14,10,61.10
2019,02,01,14,11,66.00
2019,02,01,14,12,69.00
2019,02,01,14,13,69.80
2019,02,01,14,14,74.90
2019,02,01,14,15,83.00
2019,02,01,14,16,83.40
2019,02,01,14,17,84.00
2019,02,01,14,18,85.30
2019,02,01,14,19,86.00
2019,02,01,14,20,87.60
2019,02,01,14,21,86.60
2019,02,01,14,22,88.00
2019,02,01,14,23,89.10
2019,02,01,14,24,88.60
2019,02,01,14,25,88.00
2019,02,01,14,26,86.60
2019,02,01,14,27,90.00
2019,02,01,14,28,90.00
2019,02,01,14,29,90.60
2019,02,01,14,30,91.00
2019,02,01,14,31,90.90
2019,02,01,14,32,88.00
2019,02,01,14,33,88.00
2019,02,01,14,34,87.10
2019,02,01,14,35,84.80
2019,02,01,14,36,83.20
2019,02,01,14,37,84.00
2019,02,01,14,38,85.60
2019,02,01,14,39,84.00
2019,02,01,14,40,84.00
2019,02,01,14,41,84.00
2019,02,01,14,42,84.00
2019,02,01,14,43,84.00
2019,02,01,14,44,84.00
2019,02,01,14,45,84.00
2019,02,01,14,46,85.00
2019,02,01,14,47,82.90
2019,02,01,14,48,77.90
2019,02,01,14,49,80.60
2019,02,01,14,50,78.60
2019,02,01,14,51,75.90
2019,02,01,14,52,71.40
2019,02,01,14,53,65.20
2019,02,01,14,54,63.00
2019,02,01,14,55,63.00
2019,02,01,14,56,63.00
2019,02,01,14,57,63.00
2019,02,01,14,58,63.00
2019,02,01,14,59,84.30
2019,02,01,15,00,95.00
2019,02,01,15,01,94.40
2019,02,01,15,02,91.30
2019,02,01,15,03,82.80
2019,02,01,15,04,49.40
2019,02,01,15,05,29.30
2019,02,01,15,06,27.70
2019,02,01,15,07,61.90
2019,02,01,15,08,96.10
2019,02,01,15,09,104.00
2019,02,01,15,10,104.00
2019,02,01,15,11,104.70
2019,02,01,15,12,104.10
2019,02,01,15,13,105.30
2019,02,01,15,14,107.60
2019,02,01,15,15,92.60
2019,02,01,15,16,87.40
2019,02,01,15,17,85.40
2019,02,01,15,18,96.10
2019,02,01,15,19,96.40
2019,02,01,15,20,86.90
2019,02,01,15,21,60.50
2019,02,01,15,22,32.80
2019,02,01,15,23,21.90
2019,02,01,15,24,19.10
2019,02,01,15,25,18.00
2019,02,01,15,26,17.30
2019,02,01,15,27,16.00
2019,02,01,15,28,14.70
2019,02,01,15,29,14.00
2019,02,01,15,30,14.00
2019,02,01,15,31,13.60
2019,02,01,15,32,12.00
2019,02,01,15,33,12.00
2019,02,01,15,34,12.00
2019,02,01,15,35,12.00
2019,02,01,15,36,12.00
2019,02,01,15,37,12.00
2019,02,01,15,38,12.00
2019,02,01,15,39,12.00
2019,02,01,15,40,12.00
2019,02,01,15,41,12.00
2019,02,01,15,42,12.00
2019,02,01,15,43,12.00
2019,02,01,15,44,12.00
2019,02,01,15,45,12.00
2019,02,01,15,46,12.00
2019,02,01,15,47,12.00
2019,02,01,15,48,11.00
2019,02,01,15,49,11.00
2019,02,01,15,50,11.00
2019,02,01,15,51,11.00
2019,02,01,15,52,11.00
2019,02,01,15,53,9.30
2019,02,01,15,54,9.30
2019,02,01,15,55,11.00
2019,02,01,15,56,10.10
2019,02,01,15,57,9.00
2019,02,01,15,58,9.00
2019,02,01,15,59,9.00
2019,02,01,16,00,9.00
2019,02,01,16,01,9.00
2019,02,01,16,02,9.00
2019,02,01,16,03,9.00
2019,02,01,16,04,7.50
2019,02,01,16,05,7.00
2019,02,01,16,06,7.00
2019,02,01,16,07,7.00
2019,02,01,16,08,7.00
2019,02,01,16,09,7.00
2019,02,01,16,10,7.00
2019,02,01,16,11,7.00
2019,02,01,16,12,7.00
2019,02,01,16,13,7.00
2019,02,01,16,14,6.00
2019,02,01,16,15,5.00
2019,02,01,16,16,5.00
2019,02,01,16,17,5.00
2019,02,01,16,18,5.00
2019,02,01,16,19,5.00
2019,02,01,16,20,5.00
2019,02,01,16,21,5.00
2019,02,01,16,22,5.00
2019,02,01,16,23,5.00
2019,02,01,16,24,5.00
2019,02,01,16,25,5.00
2019,02,01,16,26,5.00
2019,02,01,16,27,1.70
2019,02,01,16,28,0.00
2019,02,01,16,29,0.00
2019,02,01,16,30,0.00
2019,02,01,16,31,0.00
2019,02,01,16,32,0.00
2019,02,01,16,33,0.00
2019,02,01,16,34,0.00
2019,02,01,16,35,0.00
2019,02,01,16,36,0.00
2019,02,01,16,37,0.00
2019,02,01,16,38,0.00
2019,02,01,16,39,0.00
2019,02,01,16,40,0.00
2019,02,01,16,41,0.00
2019,02,01,16,42,0.00
2019,02,01,16,43,0.00
2019,02,01,16,44,0.00
2019,02,01,16,45,0.00
2019,02,01,16,46,0.00
2019,02,01,16,47,0.00
2019,02,01,16,48,0.00
2019,02,01,16,49,0.00
2019,02,01,16,50,0.00
2019,02,01,16,51,0.00
2019,02,01,16,52,0.00
2019,02,01,16,53,0.00
2019,02,01,16,54,0.00
2019,02,01,16,55,0.00
2019,02,01,16,56,0.00
2019,02,01,16,57,0.00
2019,02,01,16,58,0.00
2019,02,01,16,59,0.00
2019,02,01,17,00,0.00
2019,02,01,17,01,0.00
2019,02,01,17,02,0.00
2019,02,01,17,03,0.00
2019,02,01,17,04,0.00
2019,02,01,17,05,0.00
2019,02,01,17,06,0.00
2019,02,01,17,07,0.00
2019,02,01,17,08,0.00
2019,02,01,17,09,0.00
2019,02,01,17,10,0.00
2019,02,01,17,11,0.00
2019,02,01,17,12,0.00
2019,02,01,17,13,0.00
2019,02,01,17,14,0.00
2019,02,01,17,15,0.00
2019,02,01,17,16,0.00
2019,02,01,17,17,0.00
2019,02,01,17,18,0.00
2019,02,01,17,19,0.00
2019,02,01,17,20,0.00
2019,02,01,17,21,0.00
2019,02,01,17,22,0.00
2019,02,01,17,23,0.00
2019,02,01,17,24,0.00
2019,02,01,17,25,0.00
2019,02,01,17,26,0.00
2019,02,01,17,27,0.00
2019,02,01,17,28,0.00
2019,02,01,17,29,0.00
2019,02,01,17,30,0.00
2019,02,01,17,31,0.00
2019,02,01,17,32,0.00
2019,02,01,17,33,0.00
2019,02,01,17,34,0.00
2019,02,01,17,35,0.00
2019,02,01,17,36,0.00
2019,02,01,17,37,0.00
2019,02,01,17,38,0.00
2019,02,01,17,39,0.00
2019,02,01,17,40,0.00
2019,02,01,17,41,0.00
2019,02,01,17,42,0.00
2019,02,01,17,43,0.00
2019,02,01,17,44,0.00
2019,02,01,17,45,0.00
2019,02,01,17,46,0.00
2019,02,01,17,47,0.00
2019,02,01,17,48,0.00
2019,02,01,17,49,0.00
2019,02,01,17,50,0.00
2019,02,01,17,51,0.00
2019,02,01,17,52,0.00
2019,02,01,17,53,0.00
2019,02,01,17,54,0.00
2019,02,01,17,55,0.00
2019,02,01,17,56,0.00
2019,02,01,17,57,0.00
2019,02,01,17,58,0.00
2019,02,01,17,59,0.00
2019,02,01,18,00,0.00
2019,02,01,18,01,0.00
2019,02,01,18,02,0.00
2019,02,01,18,03,0.00
2019,02,01,18,04,0.00
2019,02,01,18,05,0.00
2019,02,01,18,06,0.00
2019,02,01,18,07,0.00
2019,02,01,18,08,0.00
2019,02,01,18,09,0.00
2019,02,01,18,10,0.00
2019,02,01,18,11,0.00
2019,02,01,18,12,0.00
2019,02,01,18,13,0.00
2019,02,01,18,14,0.00
2019,02,01,18,15,0.00
2019,02,01,18,16,0.00
2019,02,01,18,17,0.00
2019,02,01,18,18,0.00
2019,02,01,18,19,0.00
2019,02,01,18,20,0.00
2019,02,01,18,21,0.00
2019,02,01,18,22,0.00
2019,02,01,18,23,0.00
2019,02,01,18,24,0.00
2019,02,01,18,25,0.00
2019,02,01,18,26,0.00
2019,02,01,18,27,0.00
2019,02,01,18,28,0.00
2019,02,01,18,29,0.00
2019,02,01,18,30,0.00
2019,02,01,18,31,0.00
2019,02,01,18,32,0.00
2019,02,01,18,33,0.00
2019,02,01,18,34,0.00
2019,02,01,18,35,0.00
2019,02,01,18,36,0.00
2019,02,01,18,37,0.00
2019,02,01,18,38,0.00
2019,02,01,18,39,0.00
2019,02,01,18,40,0.00
2019,02,01,18,41,0.00
2019,02,01,18,42,0.00
2019,02,01,18,43,0.00
2019,02,01,18,44,0.00
2019,02,01,18,45,0.00
2019,02,01,18,46,0.00
2019,02,01,18,47,0.00
2019,02,01,18,48,0.00
2019,02,01,18,49,0.00
2019,02,01,18,50,0.00
2019,02,01,18,51,0.00
2019,02,01,18,52,0.00
2019,02,01,18,53,0.00
2019,02,01,18,54,0.00
2019,02,01,18,55,0.00
2019,02,01,18,56,0.00
2019,02,01,18,57,0.00
2019,02,01,18,58,0.00
2019,02,01,18,59,0.00
2019,02,01,19,00,0.00
2019,02,01,19,01,0.00
2019,02,01,19,02,0.00
2019,02,01,19,03,0.00
2019,02,01,19,04,0.00
2019,02,01,19,05,0.00
2019,02,01,19,06,0.00
2019,02,01,19,07,0.00
2019,02,01,19,08,0.00
2019,02,01,19,09,0.00
2019,02,01,19,10,0.00
2019,02,01,19,11,0.00
2019,02,01,19,12,0.00
2019,02,01,19,13,0.00
2019,02,01,19,14,0.00
2019,02,01,19,15,0.00
2019,02,01,19,16,0.00
2019,02,01,19,17,0.00
2019,02,01,19,18,0.00
2019,02,01,19,19,0.00
2019,02,01,19,20,0.00
2019,02,01,19,21,0.00
2019,02,01,19,22,0.00
2019,02,01,19,23,0.00
2019,02,01,19,24,0.00
2019,02,01,19,25,0.00
2019,02,01,19,26,0.00
2019,02,01,19,27,0.00
2019,02,01,19,28,0.00
2019,02,01,19,29,0.00
2019,02,01,19,30,0.00
2019,02,01,19,31,0.00
2019,02,01,19,32,0.00
2019,02,01,19,33,0.00
2019,02,01,19,34,0.00
2019,02,01,19,35,0.00
2019,02,01,19,36,0.00
2019,02,01,19,37,0.00
2019,02,01,19,38,0.00
2019,02,01,19,39,0.00
2019,02,01,19,40,0.00
2019,02,01,19,41,0.00
2019,02,01,19,42,0.00
2019,02,01,19,43,0.00
2019,02,01,19,44,0.00
2019,02,01,19,45,0.00
2019,02,01,19,46,0.00
2019,02,01,19,47,0.00
2019,02,01,19,48,0.00
2019,02,01,19,49,0.00
2019,02,01,19,50,0.00
2019,02,01,19,51,0.00
2019,02,01,19,52,0.00
2019,02,01,19,53,0.00
2019,02,01,19,54,0.00
2019,02,01,19,55,0.00
2019,02,01,19,56,0.00
2019,02,01,19,57,0.00
2019,02,01,19,58,0.00
2019,02,01,19,59,0.00
2019,02,01,20,00,0.00
2019,02,01,20,01,0.00
2019,02,01,20,02,0.00
2019,02,01,20,03,0.00
2019,02,01,20,04,0.00
2019,02,01,20,05,0.00
2019,02,01,20,06,0.00
2019,02,01,20,07,0.00
2019,02,01,20,08,0.00
2019,02,01,20,09,0.00
2019,02,01,20,10,0.00
2019,02,01,20,11,0.00
2019,02,01,20,12,0.00
2019,02,01,20,13,0.00
2019,02,01,20,14,0.00
2019,02,01,20,15,0.00
2019,02,01,20,16,0.00
2019,02,01,20,51,0.00
2019,02,01,20,52,0.00
2019,02,01,20,53,0.00
2019,02,01,20,54,0.00
2019,02,01,20,55,0.00
2019,02,01,20,56,0.00
2019,02,01,20,57,0.00
2019,02,01,20,58,0.00
2019,02,01,20,59,0.00
2019,02,01,21,00,0.00
2019,02,01,21,01,0.00
2019,02,01,21,02,0.00
2019,02,01,21,03,0.00
2019,02,01,21,04,0.00
2019,02,01,21,05,0.00
2019,02,01,21,06,0.00
2019,02,01,21,07,0.00
2019,02,01,21,08,0.00
2019,02,01,21,09,0.00
2019,02,01,21,10,0.00
2019,02,01,21,11,0.00
2019,02,01,21,12,0.00
2019,02,01,21,13,0.00
2019,02,01,21,14,0.00
2019,02,01,21,15,0.00
2019,02,01,21,16,0.00
2019,02,01,21,17,0.00
2019,02,01,21,18,0.00
2019,02,01,21,19,0.00
2019,02,01,21,20,0.00
2019,02,01,21,21,0.00
2019,02,01,21,22,0.00
2019,02,01,21,23,0.00
2019,02,01,21,24,0.00
2019,02,01,21,25,0.00
2019,02,01,21,26,0.00
2019,02,01,21,27,0.00
2019,02,01,21,28,0.00
2019,02,01,21,29,0.00
2019,02,01,21,30,0.00
2019,02,01,21,31,0.00
2019,02,01,21,32,0.00
2019,02,01,21,33,0.00
2019,02,01,21,34,0.00
2019,02,01,21,35,0.00
2019,02,01,21,36,0.00
2019,02,01,21,37,0.00
2019,02,01,21,38,0.00
2019,02,01,21,39,0.00
2019,02,01,21,40,0.00
2019,02,01,21,41,0.00
2019,02,01,21,42,0.00
2019,02,01,21,43,0.00
2019,02,01,21,44,0.00
2019,02,01,21,45,0.00
2019,02,01,21,46,0.00
2019,02,01,21,47,0.00
2019,02,01,21,48,0.00
2019,02,01,21,49,0.00
2019,02,01,21,50,0.00
2019,02,01,21,51,0.00
2019,02,01,21,52,0.00
2019,02,01,21,53,0.00
2019,02,01,21,54,0.00
2019,02,01,21,55,0.00
2019,02,01,21,56,0.00
2019,02,01,21,57,0.00
2019,02,01,21,58,0.00
2019,02,01,21,59,0.00
2019,02,01,22,00,0.00
2019,02,01,22,01,0.00
2019,02,01,22,02,0.00
2019,02,01,22,03,0.00
2019,02,01,22,04,0.00
2019,02,01,22,05,0.00
2019,02,01,22,06,0.00
2019,02,01,22,07,0.00
2019,02,01,22,08,0.00
2019,02,01,22,09,0.00
2019,02,01,22,10,0.00
2019,02,01,22,11,0.00
2019,02,01,22,12,0.00
2019,02,01,22,13,0.00
2019,02,01,22,14,0.00
2019,02,01,22,15,0.00
2019,02,01,22,16,0.00
2019,02,01,22,17,0.00
2019,02,01,22,18,0.00
2019,02,01,22,19,0.00
2019,02,01,22,20,0.00
2019,02,01,22,21,0.00
2019,02,01,22,22,0.00
2019,02,01,22,23,0.00
2019,02,01,22,24,0.00
2019,02,01,22,25,0.00
2019,02,01,22,26,0.00
2019,02,01,22,27,0.00
2019,02,01,22,28,0.00
2019,02,01,22,29,0.00
2019,02,01,22,30,0.00
2019,02,01,22,31,0.00
2019,02,01,22,32,0.00
2019,02,01,22,33,0.00
2019,02,01,22,34,0.00
2019,02,01,22,35,0.00
2019,02,01,22,36,0.00
2019,02,01,22,37,0.00
2019,02,01,22,38,0.00
2019,02,01,22,39,0.00
2019,02,01,22,40,0.00
2019,02,01,22,41,0.00
2019,02,01,22,42,0.00
2019,02,01,22,43,0.00
2019,02,01,22,44,0.00
2019,02,01,22,45,0.00
2019,02,01,22,46,0.00
2019,02,01,22,47,0.00
2019,02,01,22,48,0.00
2019,02,01,22,49,0.00
2019,02,01,22,50,0.00
2019,02,01,22,51,0.00
2019,02,01,22,52,0.00
2019,02,01,22,53,0.00
2019,02,01,22,54,0.00
2019,02,01,22,55,0.00
2019,02,01,22,56,0.00
2019,02,01,22,57,0.00
2019,02,01,22,58,0.00
2019,02,01,22,59,0.00
2019,02,01,23,00,0.00
2019,02,01,23,01,0.00
2019,02,01,23,02,0.00
2019,02,01,23,03,0.00
2019,02,01,23,04,0.00
2019,02,01,23,05,0.00
2019,02,01,23,06,0.00
2019,02,01,23,07,0.00
2019,02,01,23,08,0.00
2019,02,01,23,09,0.00
2019,02,01,23,10,0.00
2019,02,01,23,11,0.00
2019,02,01,23,12,0.00
2019,02,01,23,13,0.00
2019,02,01,23,14,0.00
2019,02,01,23,15,0.00
2019,02,01,23,16,0.00
2019,02,01,23,17,0.00
2019,02,01,23,18,0.00
2019,02,01,23,19,0.00
2019,02,01,23,20,0.00
2019,02,01,23,21,0.00
2019,02,01,23,22,0.00
2019,02,01,23,23,0.00
2019,02,01,23,24,0.00
2019,02,01,23,25,0.00
2019,02,01,23,26,0.00
2019,02,01,23,27,0.00
2019,02,01,23,28,0.00
2019,02,01,23,29,0.00
2019,02,01,23,30,0.00
2019,02,01,23,31,0.00
2019,02,01,23,32,0.00
2019,02,01,23,33,0.00
2019,02,01,23,34,0.00
2019,02,01,23,35,0.00
2019,02,01,23,36,0.00
2019,02,01,23,37,0.00
2019,02,01,23,38,0.00
2019,02,01,23,39,0.00
2019,02,01,23,40,0.00
2019,02,01,23,41,0.00
2019,02,01,23,42,0.00
2019,02,01,23,43,0.00
2019,02,01,23,44,0.00
2019,02,01,23,45,0.00
2019,02,01,23,46,0.00
2019,02,01,23,47,0.00
2019,02,01,23,48,0.00
2019,02,01,23,49,0.00
2019,02,01,23,50,0.00
2019,02,01,23,51,0.00
2019,02,01,23,52,0.00
2019,02,01,23,53,0.00
2019,02,01,23,54,0.00
2019,02,01,23,55,0.00
2019,02,01,23,56,0.00
2019,02,01,23,57,0.00
2019,02,01,23,58,0.00
2019,02,01,23,59,0.00
